Powrót do katalogu

DELTA 1 DEB

AktywnyUNKNOWN
NORAD 13534·DEBRIS·🇺🇸 United States

Wystrzelony Jul 29, 1976 z Vandenberg Space Force Base

Loading…

Następne Przeloty (najbliższe 24 godziny)

TLE

ŚwieżeSource: Space-Track

Epoka: Sep 14, 2026, 05:59 UTC

1 13534U 76077EG  26257.24963179 -.00000067  00000-0 -48770-3 0  9990
2 13534 101.8657 357.0490 0397083  53.5384 336.2867 11.68359974 35749

Śledź DELTA 1 DEB w czasie rzeczywistym z AllMySat

Download on the App Store